GW0282 Weather Reports


Display with metric or nautical units.
time (UTC)temp
F
wind
direction
speed
MPH
gust
MPH
rain 1hr
in
rain 24hr
in
rain mn
in
humidity
%
barometer
mb
20260505094735 55 179 0.0 1.0 0.00 0.00 0.00 92 1014.4
20260505094232 55 199 1.0 2.0 0.00 0.00 0.00 92 1014.3
20260505093728 55 230 1.0 2.0 0.00 0.00 0.00 92 1014.4
20260505093226 55 180 0.0 0.0 0.00 0.00 0.00 91 1014.2
20260505092722 55 108 0.0 0.0 0.00 0.00 0.00 91 1014.2
20260505092221 55 158 0.0 1.0 0.00 0.00 0.00 91 1014.1
20260505091718 55 157 0.0 1.0 0.00 0.00 0.00 92 1014.1
20260505091216 55 143 0.0 1.0 0.00 0.00 0.00 91 1013.9
20260505090713 55 205 0.0 0.0 0.00 0.00 0.00 91 1013.8
20260505090211 55 154 0.0 1.0 0.00 0.00 0.00 91 1013.8
20260505085708 55 125 0.0 1.0 0.00 0.00 0.00 91 1013.9
20260505085206 55 160 0.0 0.0 0.00 0.00 0.00 91 1013.7
20260505084704 55 164 0.0 1.0 0.00 0.00 0.00 91 1013.7
20260505084203 55 111 0.0 2.0 0.00 0.00 0.00 91 1013.8
20260505083659 55 172 0.0 0.0 0.00 0.00 0.00 91 1013.8
20260505083155 55 170 0.0 0.0 0.00 0.00 0.00 91 1013.8
20260505082651 55 152 0.0 0.0 0.00 0.00 0.00 90 1013.7
20260505082148 55 169 0.0 1.0 0.00 0.00 0.00 90 1014.0
20260505081644 55 204 0.0 1.0 0.00 0.00 0.00 90 1013.7
20260505081142 55 145 0.0 0.0 0.00 0.00 0.00 90 1013.8
20260505080639 55 232 0.0 1.0 0.00 0.00 0.00 90 1013.5
20260505080135 55 170 0.0 0.0 0.00 0.00 0.00 90 1013.7
20260505075631 55 156 0.0 0.0 0.00 0.00 0.00 90 1013.7
20260505075128 55 152 0.0 0.0 0.00 0.00 0.00 90 1013.8
20260505074625 55 161 0.0 0.0 0.00 0.00 0.00 90 1013.7
20260505074122 55 160 0.0 0.0 0.00 0.00 0.00 90 1013.5
20260505073620 55 160 0.0 0.0 0.00 0.00 0.00 90 1013.6
20260505073118 55 144 0.0 0.0 0.00 0.00 0.00 90 1013.2
20260505072613 55 166 0.0 1.0 0.00 0.00 0.00 90 1012.9
20260505072110 55 130 0.0 1.0 0.00 0.00 0.00 90 1013.3
20260505071605 55 149 0.0 1.0 0.00 0.00 0.00 89 1013.1
20260505071103 56 149 0.0 0.0 0.00 0.00 0.00 89 1013.1
20260505070600 56 142 0.0 1.0 0.00 0.00 0.00 89 1013.2
20260505070056 56 141 0.0 1.0 0.00 0.00 0.00 88 1013.1
20260505065552 56 123 0.0 1.0 0.00 0.00 0.00 88 1013.1
20260505065049 56 199 0.0 1.0 0.00 0.00 0.00 88 1012.9
20260505064546 57 170 1.0 1.0 0.00 0.00 0.00 87 1013.0
20260505064045 57 133 0.0 0.0 0.00 0.00 0.00 87 1012.6
20260505063542 57 135 0.0 0.0 0.00 0.00 0.00 86 1012.7
20260505063037 57 150 0.0 0.0 0.00 0.00 0.00 86 1012.6
20260505062534 57 133 0.0 2.0 0.00 0.00 0.00 85 1012.4
20260505062031 58 119 0.0 1.0 0.00 0.00 0.00 85 1012.3
20260505061529 58 143 0.0 0.0 0.00 0.00 0.00 84 1012.3
20260505061027 58 137 0.0 0.0 0.00 0.00 0.00 83 1012.5
20260505060524 59 158 0.0 0.0 0.00 0.00 0.00 83 1012.2
20260505060020 59 169 0.0 0.0 0.00 0.00 0.00 82 1012.3
20260505055516 59 170 0.0 0.0 0.00 0.00 0.00 81 1012.1
20260505055013 60 170 0.0 0.0 0.00 0.00 0.00 80 1012.2
20260505054510 60 170 0.0 0.0 0.00 0.00 0.00 80 1011.8
20260505054008 60 44 1.0 1.0 0.00 0.00 0.00 79 1012.1
20260505053505 61 119 1.0 2.0 0.00 0.00 0.00 79 1011.9
20260505053001 61 147 0.0 0.0 0.00 0.00 0.00 78 1012.2
20260505052459 62 160 0.0 0.0 0.00 0.00 0.00 77 1012.1
20260505051956 62 124 0.0 0.0 0.00 0.00 0.00 77 1012.0
20260505051453 62 147 0.0 1.0 0.00 0.00 0.00 76 1011.8
20260505050951 63 113 0.0 2.0 0.00 0.00 0.00 75 1011.9
20260505050449 63 173 1.0 1.0 0.00 0.00 0.00 75 1011.8
20260505041416 66 231 1.0 2.0 0.00 0.00 0.00 70 1011.1
20260505040913 66 211 1.0 2.0 0.00 0.00 0.00 70 1011.1
20260505040411 66 175 0.0 2.0 0.00 0.00 0.00 69 1010.8
20260505035908 67 165 1.0 1.0 0.00 0.00 0.00 69 1010.7
20260505035404 67 312 1.0 2.0 0.00 0.00 0.00 68 1010.7
20260505034901 68 169 1.0 2.0 0.00 0.00 0.00 67 1010.7
20260505034357 69 32 1.0 3.0 0.00 0.00 0.00 68 1010.7
20260505033855 69 51 3.0 3.0 0.00 0.00 0.00 71 1010.7
20260505033351 70 157 0.0 0.0 0.00 0.00 0.00 72 1010.3
20260505032850 70 151 0.0 1.0 0.00 0.00 0.00 71 1010.3
20260505032346 70 189 0.0 2.0 0.00 0.00 0.00 70 1010.3
20260505031843 70 199 2.0 3.0 0.00 0.00 0.00 70 1010.2
20260505031339 70 190 1.0 5.0 0.00 0.00 0.00 70 1009.9
20260505030837 70 159 1.0 2.0 0.00 0.00 0.00 70 1009.9
20260505030332 70 128 0.0 1.0 0.00 0.00 0.00 70 1010.1
20260505025828 70 185 3.0 5.0 0.00 0.00 0.00 70 1010.0
20260505025326 70 229 2.0 3.0 0.00 0.00 0.00 70 1010.2
20260505024824 71 192 1.0 1.0 0.00 0.00 0.00 69 1009.8
20260505024322 71 196 3.0 5.0 0.00 0.00 0.00 69 1009.9
20260505023819 71 229 3.0 5.0 0.00 0.00 0.00 68 1009.7
20260505023315 72 189 2.0 3.0 0.00 0.00 0.00 67 1009.9
20260505022813 72 119 1.0 3.0 0.00 0.00 0.00 67 1009.9
20260505022310 71 242 1.0 6.0 0.00 0.00 0.00 67 1009.8
20260505021807 72 166 1.0 5.0 0.00 0.00 0.00 67 1009.8
20260505021303 72 188 3.0 3.0 0.00 0.00 0.00 66 1009.8
20260505020759 72 217 2.0 6.0 0.00 0.00 0.00 65 1010.1
20260505020255 73 200 3.0 5.0 0.00 0.00 0.00 64 1009.8
20260505015752 75 212 5.0 6.0 0.00 0.00 0.00 61 1009.9
20260505015249 74 184 2.0 3.0 0.00 0.00 0.00 62 1009.8
20260505014746 74 141 1.0 2.0 0.00 0.00 0.00 62 1009.8
20260505014243 74 128 1.0 5.0 0.00 0.00 0.00 62 1009.9
20260505013739 74 190 2.0 5.0 0.00 0.00 0.00 62 1009.8
20260505013237 74 137 1.0 3.0 0.00 0.00 0.00 62 1009.8
20260505012735 75 161 2.0 5.0 0.00 0.00 0.00 61 1009.9
20260505012232 75 127 0.0 3.0 0.00 0.00 0.00 62 1010.0
20260505011728 74 186 3.0 5.0 0.00 0.00 0.00 61 1010.0
20260505011225 74 299 1.0 6.0 0.00 0.00 0.00 62 1010.0
20260505010721 75 209 4.0 6.0 0.00 0.00 0.00 60 1010.2
20260505010217 75 199 3.0 5.0 0.00 0.00 0.00 59 1010.1
20260505005714 76 205 3.0 5.0 0.00 0.00 0.00 59 1010.1
20260505005211 75 155 0.0 3.0 0.00 0.00 0.00 59 1010.3
20260505004708 75 149 1.0 5.0 0.00 0.00 0.00 59 1010.1
20260505004204 75 274 3.0 3.0 0.00 0.00 0.00 58 1010.2
20260505003702 76 284 1.0 2.0 0.00 0.00 0.00 57 1010.1
20260505003200 75 225 3.0 5.0 0.00 0.00 0.00 56 1010.2
20260505002655 76 111 2.0 5.0 0.00 0.00 0.00 56 1010.2
20260505002153 76 196 2.0 2.0 0.00 0.00 0.00 57 1010.0
20260505001650 76 151 3.0 5.0 0.00 0.00 0.00 55 1010.3
20260505001148 76 218 3.0 6.0 0.00 0.00 0.00 55 1010.3
20260505000644 77 287 2.0 3.0 0.00 0.00 0.00 55 1010.4
20260505000143 75 115 2.0 3.0 0.00 0.00 0.00 55 1010.4
20260504235638 76 275 2.0 3.0 0.00 0.00 0.00 57 1010.4
20260504235135 75 323 2.0 5.0 0.00 0.00 0.00 55 1010.4
20260504234633 75 175 2.0 5.0 0.00 0.00 0.00 55 1010.2
20260504234130 75 139 1.0 2.0 0.00 0.00 0.00 55 1010.5
20260504233625 75 196 1.0 3.0 0.00 0.00 0.00 55 1010.6
20260504233121 75 206 1.0 2.0 0.00 0.00 0.00 55 1010.7
20260504232620 74 225 1.0 3.0 0.00 0.00 0.00 57 1010.6
20260504232116 74 234 1.0 3.0 0.00 0.00 0.00 57 1010.6
20260504231613 73 234 3.0 5.0 0.00 0.00 0.00 57 1010.4
20260504231109 73 238 1.0 3.0 0.00 0.00 0.00 57 1010.9
20260504230605 74 176 4.0 6.0 0.00 0.00 0.00 56 1010.8
20260504230104 73 188 3.0 3.0 0.00 0.00 0.00 58 1010.8
20260504225602 72 189 3.0 5.0 0.00 0.00 0.00 59 1011.0
20260504225058 73 176 1.0 2.0 0.00 0.00 0.00 58 1011.0
20260504224555 72 198 1.0 5.0 0.00 0.00 0.00 59 1011.1
20260504224052 73 86 3.0 6.0 0.00 0.00 0.00 59 1011.1
20260504223549 73 159 3.0 5.0 0.00 0.00 0.00 60 1011.2
20260504223044 73 266 3.0 5.0 0.00 0.00 0.00 58 1011.3
20260504222542 72 189 0.0 3.0 0.00 0.00 0.00 60 1011.3
20260504222039 72 115 1.0 5.0 0.00 0.00 0.00 60 1011.4
20260504221536 71 209 3.0 5.0 0.00 0.00 0.00 60 1011.4
20260504221033 71 295 5.0 8.0 0.00 0.00 0.00 60 1011.5
20260504220529 72 250 1.0 5.0 0.00 0.00 0.00 59 1011.6
20260504220026 71 228 2.0 7.0 0.00 0.00 0.00 61 1011.6
20260504215523 71 209 1.0 3.0 0.00 0.00 0.00 62 1011.5
20260504215020 69 166 2.0 5.0 0.00 0.00 0.00 64 1011.8
20260504214516 71 269 4.0 5.0 0.00 0.00 0.00 60 1011.7
20260504214012 70 183 2.0 5.0 0.00 0.00 0.00 61 1011.8
20260504213509 70 272 1.0 6.0 0.00 0.00 0.00 63 1011.9
20260504213007 69 275 3.0 6.0 0.00 0.00 0.00 64 1011.9
20260504212502 70 251 4.0 7.0 0.00 0.00 0.00 63 1011.9
20260504212000 69 113 1.0 5.0 0.00 0.00 0.00 64 1012.2
20260504211456 69 260 2.0 8.0 0.00 0.00 0.00 65 1012.0
20260504210954 68 183 1.0 5.0 0.00 0.00 0.00 66 1012.1
20260504210450 69 206 2.0 7.0 0.00 0.00 0.00 66 1012.4
20260504205947 67 228 2.0 3.0 0.00 0.00 0.00 68 1012.3
20260504205444 67 151 3.0 5.0 0.00 0.00 0.00 68 1012.5
20260504204943 67 117 3.0 6.0 0.00 0.00 0.00 68 1012.5
20260504204441 67 182 2.0 7.0 0.00 0.00 0.00 68 1012.6
20260504203940 68 254 3.0 6.0 0.00 0.00 0.00 67 1012.6
20260504203437 66 107 1.0 5.0 0.00 0.00 0.00 70 1012.7
20260504202933 66 164 1.0 3.0 0.00 0.00 0.00 68 1012.8
20260504202430 66 189 5.0 6.0 0.00 0.00 0.00 69 1012.8
20260504201926 66 153 3.0 5.0 0.00 0.00 0.00 69 1012.8
20260504201424 65 169 2.0 6.0 0.00 0.00 0.00 71 1012.7
20260504200921 66 192 3.0 5.0 0.00 0.00 0.00 70 1013.0
20260504200418 64 182 1.0 5.0 0.00 0.00 0.00 71 1012.9
20260504195915 65 152 3.0 5.0 0.00 0.00 0.00 71 1013.1
20260504195410 64 177 1.0 3.0 0.00 0.00 0.00 72 1013.1
20260504194907 64 225 3.0 5.0 0.00 0.00 0.00 73 1013.0
20260504194403 64 190 5.0 7.0 0.00 0.00 0.00 71 1013.0
20260504193859 64 203 2.0 5.0 0.00 0.00 0.00 72 1013.1
20260504193356 65 191 1.0 5.0 0.00 0.00 0.00 72 1013.1
20260504192855 64 155 2.0 6.0 0.00 0.00 0.00 72 1013.1
20260504192352 63 189 4.0 6.0 0.00 0.00 0.00 73 1013.3
20260504191850 63 118 5.0 6.0 0.00 0.00 0.00 74 1013.4
20260504191348 63 184 6.0 7.0 0.00 0.00 0.00 74 1013.3
20260504190843 62 287 1.0 7.0 0.00 0.00 0.00 76 1013.3
20260504190339 62 187 3.0 8.0 0.00 0.00 0.00 77 1013.3
20260504185836 62 229 3.0 6.0 0.00 0.00 0.00 76 1013.4
20260504185333 62 217 3.0 8.0 0.00 0.00 0.00 76 1013.3
20260504184829 62 98 1.0 5.0 0.00 0.00 0.00 77 1013.6
20260504184326 61 204 4.0 5.0 0.00 0.00 0.00 78 1013.5
20260504183821 61 196 3.0 6.0 0.00 0.00 0.00 78 1013.5
20260504183319 60 179 3.0 5.0 0.00 0.00 0.00 79 1013.6
20260504182817 60 206 4.0 5.0 0.00 0.00 0.00 80 1013.6
20260504182314 60 208 4.0 6.0 0.00 0.00 0.00 80 1013.5
20260504181810 60 236 4.0 6.0 0.00 0.00 0.00 80 1013.4
20260504181308 59 152 1.0 6.0 0.00 0.00 0.00 81 1013.6
20260504180807 60 285 3.0 6.0 0.00 0.00 0.00 81 1013.6
20260504180305 59 149 0.0 2.0 0.00 0.00 0.00 81 1013.6
20260504175803 59 141 3.0 5.0 0.00 0.00 0.00 83 1013.4
20260504175259 59 173 3.0 6.0 0.00 0.00 0.00 83 1013.6
20260504174757 58 205 1.0 6.0 0.00 0.00 0.00 84 1013.5
20260504174255 58 206 2.0 3.0 0.00 0.00 0.00 84 1013.5
20260504173751 58 118 1.0 3.0 0.00 0.00 0.00 84 1013.4
20260504173248 58 195 2.0 3.0 0.00 0.00 0.00 84 1013.4
20260504172745 58 89 2.0 6.0 0.00 0.00 0.00 84 1013.7
20260504172241 58 216 2.0 3.0 0.00 0.00 0.00 84 1013.4
20260504171737 57 114 1.0 5.0 0.00 0.00 0.00 86 1013.5
20260504171235 57 220 5.0 9.0 0.00 0.00 0.00 86 1013.6
20260504170732 57 221 4.0 8.0 0.00 0.00 0.00 86 1013.5
20260504170229 57 212 5.0 8.0 0.00 0.00 0.00 85 1013.4
20260504160147 56 207 3.0 7.0 0.00 0.00 0.00 88 1013.5
20260504151115 57 138 2.0 6.0 0.00 0.00 0.00 86 1013.1
20260504150613 57 197 4.0 6.0 0.00 0.00 0.00 86 1012.7
20260504150109 56 187 3.0 6.0 0.00 0.00 0.00 87 1012.8
20260504141038 55 194 4.0 7.0 0.00 0.00 0.00 88 1012.1
20260504140534 55 240 1.0 8.0 0.00 0.00 0.00 89 1012.2
20260504130459 56 66 2.0 6.0 0.00 0.00 0.00 87 1011.3
20260504110346 61 167 2.0 3.0 0.00 0.00 0.00 77 1009.3
20260504100303 63 153 0.0 0.0 0.00 0.00 0.00 69 1008.7